Terug naar catalogus

RASSVET-3 15

ActiefWetenschapPO
NORAD 68374·PAYLOAD·🇷🇺 Russia

Gelanceerd Mar 23, 2026 vanaf Plesetsk Cosmodrome

Loading…

Volgende Passages (komende 24 uur)

TLE

VersSource: Space-Track

Epoch: Sep 14, 2026, 12:33 UTC

1 68374U 26061Q   26257.52294755  .00006656  00000-0  32220-3 0  9999
2 68374  82.2918 280.1289 0003664 102.6455 257.5188 15.18407970 27188

Volg RASSVET-3 15 in realtime met AllMySat

Download on the App Store